Find Starlink 36380

NORAD ID: 68344 Int'l Des: 2026-059 Owner: SPXS Country: US Constellation: starlink operational
LEOCIRCULAR

实时位置

正在加载3D地球...

关于 Starlink 36380

正在加载描述...

即将过境

Passes for default location (London). Set your location on the main map for personalized predictions.

高度历史

Loading altitude history...

两行轨道根数

1 68344U 26059Z 26127.23807223 .00007800 00000-0 28234-3 0 9999
2 68344 53.1598 76.7474 0001274 93.3446 266.7700 15.29356052 7133
Epoch: May 7, 2026 • Age: 8 hours

当前状态

高度 482.9 km
速度 7.63 km/s
星下点 51.13°N, 112.04°E
发射日期 Mar 22, 2026
运行时间 0.1 years
类型 internet

技术详情

分类 Payload
质量 575.00 kg
干质量 530.00 kg
总质量 575.00 kg
长度 0.30 m
直径 4.10 m
跨度 29.00 m
形状 Box + pan
制造商 SPXS
平台类型 Starlink V2MO
阶段状态 In Orbit
所有者/国家 SPXS/US

Most Searched